RAM675 GMTT-GMMN

Flight info

Callsign RAM675
Flight time 0h 29m
Altitude 27000
Route SOBMA UN10 BARIS UB11 TUSOR
Aircraft B763/H-SDE1E2E3FGHIJ2J3J4J5M1RWXYZ/LB1D1

Departure

Time 2026-04-26 20:21
Airport Tangier Ibn Battuta Airport (GMTT)

Arrival

Time 2026-04-26 20:50
Airport Mohammed V International Airport (GMMN)
Time Latitude Longitude Altitude Speed Heading
2026-04-26 20:15 35.72518 -5.91559 62 ft 0 kts 356°
2026-04-26 20:19 35.72545 -5.91581 33 ft 17 kts 314°
2026-04-26 20:19 35.72640 -5.91696 61 ft 18 kts 353°
2026-04-26 20:19 35.72789 -5.91712 59 ft 26 kts 355°
2026-04-26 20:20 35.72948 -5.91767 56 ft 6 kts 304°
2026-04-26 20:20 35.72965 -5.91919 57 ft 34 kts 276°
2026-04-26 20:20 35.73001 -5.92311 55 ft 52 kts 276°
2026-04-26 20:20 35.73106 -5.92610 57 ft 24 kts 351°
2026-04-26 20:21 35.73194 -5.92462 58 ft 45 kts 93°
2026-04-26 20:21 35.73122 -5.91652 74 ft 140 kts 96°
2026-04-26 20:21 35.73004 -5.90287 691 ft 178 kts 95°
2026-04-26 20:21 35.72603 -5.88793 1767 ft 190 kts 125°
2026-04-26 20:22 35.71457 -5.87814 2488 ft 221 kts 157°
2026-04-26 20:22 35.69825 -5.87743 2779 ft 246 kts 181°
2026-04-26 20:22 35.68041 -5.88023 3108 ft 272 kts 182°
2026-04-26 20:22 35.66068 -5.88335 3352 ft 299 kts 184°
2026-04-26 20:23 35.63918 -5.88658 3622 ft 333 kts 184°
2026-04-26 20:23 35.61582 -5.88991 4952 ft 338 kts 185°
2026-04-26 20:23 35.59237 -5.89310 6522 ft 341 kts 186°
2026-04-26 20:23 35.56852 -5.89620 7833 ft 348 kts 186°
2026-04-26 20:24 35.54403 -5.89930 9049 ft 357 kts 186°
2026-04-26 20:24 35.51904 -5.90241 10227 ft 365 kts 187°
2026-04-26 20:24 35.49354 -5.90555 11378 ft 370 kts 187°
2026-04-26 20:24 35.46777 -5.90871 12546 ft 375 kts 187°
2026-04-26 20:25 35.44157 -5.91192 13683 ft 381 kts 187°
2026-04-26 20:25 35.42402 -5.91407 14324 ft 385 kts 187°
2026-04-26 20:25 35.38789 -5.91772 15566 ft 395 kts 183°
2026-04-26 20:25 35.36015 -5.91862 16491 ft 402 kts 182°
2026-04-26 20:26 35.33192 -5.91930 17420 ft 409 kts 181°
2026-04-26 20:26 35.30329 -5.91996 18333 ft 415 kts 181°
2026-04-26 20:26 35.27456 -5.92065 19126 ft 421 kts 181°
2026-04-26 20:26 35.24507 -5.92141 19944 ft 426 kts 181°
2026-04-26 20:27 35.21526 -5.92222 20750 ft 431 kts 181°
2026-04-26 20:27 35.18502 -5.92306 21528 ft 436 kts 181°
2026-04-26 20:27 35.15449 -5.92392 22265 ft 441 kts 181°
2026-04-26 20:27 35.12352 -5.92480 22981 ft 446 kts 182°
2026-04-26 20:28 35.09228 -5.92569 23633 ft 452 kts 182°
2026-04-26 20:28 35.06060 -5.92658 24194 ft 456 kts 182°
2026-04-26 20:28 35.02918 -5.92746 24758 ft 460 kts 182°
2026-04-26 20:28 34.99699 -5.92837 25330 ft 463 kts 182°
2026-04-26 20:29 34.96458 -5.92928 25861 ft 467 kts 182°
2026-04-26 20:29 34.93213 -5.93192 26273 ft 469 kts 190°
2026-04-26 20:29 34.90064 -5.94276 26686 ft 473 kts 203°
2026-04-26 20:29 34.87090 -5.96051 26909 ft 480 kts 209°
2026-04-26 20:30 34.84204 -5.98138 26905 ft 484 kts 214°
2026-04-26 20:30 34.81465 -6.00546 26889 ft 489 kts 217°
2026-04-26 20:30 34.78733 -6.03040 26892 ft 493 kts 218°
2026-04-26 20:30 34.75983 -6.05566 26898 ft 496 kts 218°
2026-04-26 20:31 34.73208 -6.08108 26896 ft 499 kts 217°
2026-04-26 20:31 34.70420 -6.10649 26889 ft 502 kts 217°
2026-04-26 20:31 34.67659 -6.13153 26885 ft 503 kts 217°
2026-04-26 20:31 34.64841 -6.15698 26883 ft 503 kts 217°
2026-04-26 20:32 34.62022 -6.18235 26883 ft 504 kts 217°
2026-04-26 20:32 34.59200 -6.20771 26884 ft 504 kts 217°
2026-04-26 20:32 34.56376 -6.23305 26878 ft 504 kts 217°
2026-04-26 20:32 34.53553 -6.25838 26877 ft 504 kts 217°
2026-04-26 20:33 34.50731 -6.28369 26877 ft 503 kts 217°
2026-04-26 20:33 34.47956 -6.30855 26880 ft 502 kts 217°
2026-04-26 20:33 34.45137 -6.33379 26879 ft 501 kts 217°
2026-04-26 20:33 34.42331 -6.35890 26877 ft 500 kts 217°
2026-04-26 20:34 34.39560 -6.38368 26879 ft 499 kts 217°
2026-04-26 20:34 34.36770 -6.40860 26882 ft 498 kts 217°
2026-04-26 20:34 34.33973 -6.43357 26876 ft 498 kts 217°
2026-04-26 20:34 34.31173 -6.45854 26877 ft 498 kts 217°
2026-04-26 20:35 34.28419 -6.48308 26875 ft 480 kts 217°
2026-04-26 20:35 34.25803 -6.50637 26864 ft 464 kts 216°
2026-04-26 20:35 34.23208 -6.52945 26422 ft 458 kts 217°
2026-04-26 20:35 34.20662 -6.55208 25863 ft 451 kts 216°
2026-04-26 20:36 34.18174 -6.57418 25260 ft 446 kts 217°
2026-04-26 20:36 34.15679 -6.59633 24664 ft 443 kts 217°
2026-04-26 20:36 34.13203 -6.61830 24038 ft 440 kts 217°
2026-04-26 20:36 34.10755 -6.63999 23407 ft 437 kts 217°
2026-04-26 20:37 34.08293 -6.66180 22709 ft 434 kts 216°
2026-04-26 20:37 34.05892 -6.68306 22076 ft 430 kts 216°
2026-04-26 20:37 34.03484 -6.70435 21470 ft 426 kts 216°
2026-04-26 20:37 34.01107 -6.72536 20879 ft 422 kts 216°
2026-04-26 20:38 33.98749 -6.74618 20310 ft 418 kts 216°
2026-04-26 20:38 33.96408 -6.76684 19747 ft 415 kts 216°
2026-04-26 20:38 33.94084 -6.78734 19297 ft 416 kts 216°
2026-04-26 20:38 33.91808 -6.80739 18984 ft 427 kts 216°
2026-04-26 20:39 33.89386 -6.82872 18642 ft 429 kts 216°
2026-04-26 20:39 33.87788 -6.84278 18411 ft 429 kts 216°
2026-04-26 20:39 33.84574 -6.87105 17913 ft 427 kts 216°
2026-04-26 20:39 33.82174 -6.89214 17481 ft 425 kts 216°
2026-04-26 20:40 33.79789 -6.91308 16968 ft 422 kts 216°
2026-04-26 20:40 33.77437 -6.93372 16466 ft 414 kts 216°
2026-04-26 20:40 33.75130 -6.95395 15969 ft 407 kts 216°
2026-04-26 20:40 33.72850 -6.97394 15472 ft 400 kts 216°
2026-04-26 20:41 33.70649 -6.99322 15014 ft 394 kts 216°
2026-04-26 20:41 33.68443 -7.01252 14529 ft 389 kts 216°
2026-04-26 20:41 33.66264 -7.03158 14062 ft 383 kts 216°
2026-04-26 20:41 33.64120 -7.05032 13566 ft 378 kts 216°
2026-04-26 20:42 33.62002 -7.06882 13070 ft 374 kts 217°
2026-04-26 20:42 33.59931 -7.08690 12562 ft 372 kts 217°
2026-04-26 20:42 33.57811 -7.10540 12057 ft 372 kts 217°
2026-04-26 20:42 33.55733 -7.12353 11574 ft 376 kts 217°
2026-04-26 20:43 33.53618 -7.14195 11079 ft 377 kts 217°
2026-04-26 20:43 33.51490 -7.16049 10601 ft 377 kts 217°
2026-04-26 20:43 33.49363 -7.17900 10129 ft 376 kts 217°
2026-04-26 20:43 33.47241 -7.19746 9648 ft 377 kts 216°
2026-04-26 20:44 33.45306 -7.21428 9195 ft 377 kts 217°
2026-04-26 20:44 33.43185 -7.23270 8676 ft 374 kts 217°
2026-04-26 20:44 33.41229 -7.24968 8216 ft 370 kts 217°
2026-04-26 20:44 33.39144 -7.26777 7732 ft 366 kts 217°
2026-04-26 20:45 33.37090 -7.28559 7292 ft 363 kts 217°
2026-04-26 20:45 33.35053 -7.30325 6924 ft 357 kts 218°
2026-04-26 20:45 33.33241 -7.32323 6568 ft 358 kts 232°
2026-04-26 20:45 33.31922 -7.34854 6225 ft 360 kts 246°
2026-04-26 20:46 33.31102 -7.37624 5816 ft 340 kts 253°
2026-04-26 20:46 33.30446 -7.40242 5244 ft 319 kts 254°
2026-04-26 20:46 33.29862 -7.42682 4683 ft 301 kts 254°
2026-04-26 20:46 33.29317 -7.45027 4164 ft 285 kts 254°
2026-04-26 20:47 33.28806 -7.47255 3660 ft 271 kts 254°
2026-04-26 20:47 33.28483 -7.48673 3315 ft 263 kts 254°
2026-04-26 20:47 33.27870 -7.51368 2623 ft 235 kts 255°
2026-04-26 20:47 33.27469 -7.53169 2178 ft 211 kts 264°
2026-04-26 20:48 33.27693 -7.54720 2002 ft 177 kts 307°
2026-04-26 20:48 33.28495 -7.55689 2016 ft 155 kts 324°
2026-04-26 20:48 33.29347 -7.56395 1873 ft 146 kts 337°
2026-04-26 20:48 33.30262 -7.56858 1707 ft 141 kts 342°
2026-04-26 20:49 33.31171 -7.57283 1489 ft 141 kts 344°
2026-04-26 20:49 33.32125 -7.57628 1307 ft 142 kts 346°
2026-04-26 20:49 33.33082 -7.57958 1113 ft 143 kts 345°
2026-04-26 20:49 33.34045 -7.58288 907 ft 143 kts 345°
2026-04-26 20:50 33.35000 -7.58615 729 ft 142 kts 345°
2026-04-26 20:50 33.35901 -7.58917 656 ft 119 kts 343°
2026-04-26 20:50 33.36459 -7.59071 655 ft 63 kts
2026-04-26 20:50 33.36744 -7.58999 660 ft 17 kts 33°
2026-04-26 20:51 33.36803 -7.58841 656 ft 31 kts 74°
2026-04-26 20:51 33.36863 -7.58590 658 ft 30 kts 74°
2026-04-26 20:51 33.36920 -7.58350 658 ft 30 kts 74°
2026-04-26 20:51 33.36938 -7.58207 661 ft 6 kts 129°
2026-04-26 20:52 33.36894 -7.58194 658 ft 2 kts 194°
2026-04-26 20:52 33.36879 -7.58230 656 ft 6 kts 267°
2026-04-26 20:52 33.36860 -7.58265 661 ft 4 kts 195°
2026-04-26 20:52 33.36845 -7.58249 660 ft 3 kts 127°
2026-04-26 20:53 33.36842 -7.58242 660 ft 0 kts 121°